Location: Unspecified
(0.0000°N, 0.0000°E)
Time: 07:17:09
(UTC+00:00)

Vanguard 2 Rocket - Pass Details

Date: 03 October 2023
Orbit: 552 x 3312 km, 32.9° (Epoch: 06 December)

Event Time Altitude Azimuth Distance (km) Brightness Sun altitude
Rises 10:55:39 0° 303° (WNW) 6,018 10.9 76.1°
Reaches altitude 10° 11:01:42 10° 321° (NW) 5,488 10.9 77.5°
Maximum altitude 11:12:08 18° 358° (N) 5,381 11.0 79.9°
Drops below altitude 10° 11:23:57 10° 35° (NE) 6,260 11.3 82.6°
Sets 11:31:51 0° 52° (NE) 7,170 11.5 84.1°
